Tracking 19476 objects as of 17-Jan-2019
HD Live streaming from Space Station
objects crossing your sky now

UWE-3

Track UWE-3 now!
10-day predictions
UWE-3 is classified as:


NORAD ID: 39446
Int'l Code: 2013-066AG
Perigee: 592.9 km
Apogee: 690.6 km
Inclination: 97.6 °
Period: 97.4 minutes
Semi major axis: 7012 km
RCS: Unknown
Launch date: November 21, 2013
Source: Germany (GER)
Launch site: Orenburg, Russia (OREN)

Uplink (MHz):
Downlink (MHz): 435.000/436.395/437.385
Beacon (MHz):
Mode: 9600bps GMSK CW
Call sign: DP0UWG
Status: Active

aabbcc
Your satellite tracking list
Your tracking list is empty




NASA's NSSDC Master Catalog

Two Line Element Set (TLE):
1 39446U 13066AG  19016.99125492  .00000144  00000-0  25881-4 0  9997
2 39446  97.5837  31.2808 0069671 197.2147 162.6702 14.78314583276709
Source of the keplerian elements: Caltech